星链-32149 (STARLINK-32149)

导读 | 星芒AI

STARLINK-32149 是 SpaceX 星链计划中的一颗低轨通信卫星,属于第 6 批次发射的星链卫星群。该卫星运行在约 550 公里的轨道高度,旨在为全球用户提供高速互联网服务。它采用先进的相控阵天线和激光通信技术,提升网络连接的稳定性和传输效率。作为星链系统的一部分,STARLINK-32149 有助于扩大覆盖范围,特别是在偏远和网络基础设施薄弱的地区。

基本信息
目录编号:
60292
目录名称:
STARLINK-32149
国际标识:
2024-132Q
轨道中心:
EARTH
卫星名称:
星链-32149 (STARLINK-32149)
卫星全名:
星链-32149 (STARLINK-32149)
卫星状态:
在轨 (已飞行510 天)
发射日期:
2024-07-28 UTC
国别 :
美国 (US)
星等 :
--
轨道信息
数据来源 国际轨道数据
星历时间: 2025-12-20T05:52:22+0800
9小时前
查看轨道信息
半长轴: 6853.409km
偏心率: 0.0001514
轨道倾角: 53.162°
近地点辐角 97.289°
升交点赤经 63.161°
平近点角 262.829°
近地点: 474.234km
远地点: 476.31km
周期: 94.107分钟
每日圈数: 15.30181
详细信息
卫星平台:
Starlink v2.0 mini
运营商:
太空探索技术公司
运营商所在国:
美国
制造商(研发单位):
太空探索技术公司
制造商所在国:
美国
使用方式:
暂无
卫星简介
星链(Starlink)计划是由太空探索技术公司(SpaceX)提出的一个巨型低轨卫星互联网星座项目,计划在2019年至2024年间在太空搭建由约1.2万颗卫星组成的“星链”网络,其中1584颗将部署在地球上空550千米处的近地轨道,并从2020年开始工作。该卫星仍在工作。
2D轨道图
3D轨道图
轨道高度分析图
轨道倾角分析图
轨道综合分析图
查看轨道综合分析图